YAOGAN-35 05C (53763 NORAD) Tracking and Keplerian Element Data

This shows tracking and keplerian element data for the satellite.

Feedback or suggestion? Click here.




ElementValue
Catalog53763
NameYAOGAN-35 05C
Epoch Orbit1157
Epoch Day325.29112771
Epoch Year2022
RAAN266.7966
Inclination34.997
Eccentricity0.0010762
Argument of Perigee249.5262
Mean Anonmoly268.3878
Mean Motion15.22853238
Decay Rate7.811E-05
L11 53763U 22109D 22325.29112771 .00007811 00000+0 32633-3 0 9998
L22 53763 34.9970 266.7966 0010762 249.5262 268.3878 15.22853238 11571



Live tracking and technical data element details for YAOGAN-35 05C (NORAD 53763). YAOGAN-35 05C can be tracked NOW for your location showing map with azimuth and elevation plus other details from your city location.







IsCatalogInMostPopularTable: catalog: 53763, numindb: -1

Insert: records affected: 1


GetName: 53763 YAOGAN-35 05C

Hit Count: inserted at: Thu, 08 Dec 2022 08:37:41 GMT